www.pogodaiklimat.ru

Погода и климат >> Архив погоды >> Туркменистан >> Сердар


АРХИВ ПОГОДЫ в Сердаре

Время (UTC), дата Ветер
(напр.,м/с)
 
Видим.   Явления Облачность Т
(С)
Тd
(С)
f
(%)
Тe
(С)
Тes
(С)
Комфортность P
(гПа)
Po
(гПа)
Тmin
(С)
Tmax
(С)
R
(мм)
R24
(мм)
S
(см)
00 11.06 В 2 10 км ясно +19.6 +8.5 49 +21 +21 комфорт 1017.8 1007.7
03 11.06 штиль 0 20 км ясно +22.4 +9.4 44 +24 +28 комфорт 1017.9 1007.9 +18.2
06 11.06 В 5 20 км ясно +28.0 +10.3 33 +28 +37 жарко 1017.1 1007.3 +18.2
09 11.06 В 6 20 км 4/0
[Ac trans]
+31.4 +10.0 27 +31 +37 жарко 1016.7 1007.0
12 11.06 В 6 20 км 3/0
[Ac lent]
+33.0 +10.6 25 +32 +35 жарко 1014.8 1005.2
15 11.06 В 5 20 км 3/0
[Ac trans]
+32.2 +11.4 28 +32 +32 жарко 1012.7 1003.1 +33.2
18 11.06 ЮВ 4 10 км ясно +26.2 +10.5 37 +27 +27 жарко 1013.0 1003.2 +33.2
21 11.06 В 4 10 км ясно +23.2 +11.0 46 +25 +25 комфорт 1012.1 1002.2
00 12.06 В 3 10 км ясно +20.4 +10.5 53 +22 +22 комфорт 1011.5 1001.5
03 12.06 В 3 20 км 8 баллов +22.8 +12.3 52 +26 +26 жарко 1011.4 1001.5 +20.2
06 12.06 В 8 20 км 6/0
[Ci fib]
+31.3 +14.5 36 +33 +36 жарко 1010.9 1001.3 +20.2
09 12.06 В 8 20 км 4/0
[Ci fib]
+34.6 +15.9 33 +37 +40 очень
душно
1009.4 999.9
12 12.06 В 8 20 км 6/0
[Ac lent]
+34.2 +15.9 34 +37 +38 очень
душно
1007.8 998.3
15 12.06 В 5 20 км 8/0
[Ac lent]
+33.0 +14.3 32 +34 +34 очень
жарко
1006.9 997.4 +35.6
18 12.06 В 5 10 км ясно +27.0 +14.8 47 +30 +30 душно 1006.9 997.2 +35.6
21 12.06 В 3 10 км ясно +26.1 +14.0 47 +28 +28 жарко 1006.5 996.7
00 13.06 В 2 10 км ясно +22.4 +13.4 57 +25 +25 комфорт 1006.0 996.2
03 13.06 штиль 0 20 км 1/0
[Ac trans]
+22.8 +13.9 57 +26 +30 жарко 1007.0 997.2 +22.8
06 13.06 В 5 20 км 9/3 600 м
[Cu med, cong Ac trans Ci]
+30.3 +16.9 45 +34 +37 очень
душно
1006.9 997.3 +22.2
09 13.06 В 5 20 км 8/1 600 м
[Cu med, cong Cs]
+35.3 +19.5 40 +41 +49 опасность
перегрева
1005.9 996.4
12 13.06 В 3 20 км 3/0
[Cs]
+37.5 +21.1 39 +45 +52 опасность
перегрева
1004.2 994.9
15 13.06 В 3 20 км 3/0
[Ci]
+35.9 +18.2 35 +40 +40 очень
душно
1004.1 994.8 +38.0
18 13.06 штиль 0 10 км 3 балла +28.4 +17.1 50 +32 +32 душно 1005.2 995.6 +38.0
21 13.06 Ю 4 10 км 3/3 600 м
[Cu med, cong]
+28.8 +20.4 60 +35 +35 очень
душно
1005.6 996.0
00 14.06 Ю 5 10 км ясно +26.8 +19.0 62 +32 +32 очень
душно
1006.0 996.3
03 14.06 штиль 0 20 км 3/0
[Ac trans]
+28.6 +19.0 56 +34 +38 очень
душно
1007.1 997.5 +25.4
06 14.06 ЮЗ 6 20 км 3/3 600 м
[Cu med, cong]
+32.2 +20.9 51 +39 +44 очень
душно
1007.5 998.0 +25.4
09 14.06 ЮЗ 6 20 км 3/3 600 м
[Cu med, cong]
+35.6 +21.9 45 +44 +49 опасность
перегрева
1007.3 997.9
12 14.06 С 3 20 км 6/6 900 м
[Cu med, cong]
+37.2 +21.8 41 +45 +48 опасность
перегрева
1006.6 997.3
15 14.06 С 3 20 км 9/4 600 м
[Cu med, cong Ac lent]
+35.4 +20.6 42 +42 +42 опасность
перегрева
1007.4 998.0 +37.8
18 14.06 ЮЗ 6 10 км 4/0
[Ac trans Ci fib]
+31.6 +12.8 32 +32 +32 жарко 1009.0 999.4 +37.8
21 14.06 Ю 1 10 км ясно +29.2 +13.2 37 +31 +31 жарко 1009.7 1000.1
00 15.06 ЮЗ 2 10 км 1/0
[Ac trans]
+26.2 +15.8 53 +29 +29 жарко 1010.9 1001.1
03 15.06 штиль 0 20 км ясно +27.0 +17.1 55 +31 +36 душно 1011.6 1001.8 +25.1
06 15.06 штиль 0 20 км ясно +31.2 +14.1 35 +33 +54 опасность
солнечного
удара
1011.8 1002.2 +25.1
09 15.06 штиль 0 20 км ясно +34.8 +12.1 25 +35 +62 опасность
солнечного
удара
1010.9 1001.4
12 15.06 СЗ 2 20 км 3/3 600 м
[Cu med, cong]
+36.6 +12.1 23 +36 +43 очень
жарко
1008.9 999.5
15 15.06 СВ 2 20 км 1/1 600 м
[Cu med, cong]
+36.0 +8.1 18 +34 +34 очень
жарко
1008.7 999.2 +36.8
18 15.06 штиль 0 10 км 4/4 600 м
[Cu med, cong]
+30.7 +15.3 39 +33 +33 душно 1009.8 1000.2 +36.8
21 15.06 В 2 10 км ясно +28.0 +4.0 22 +27 +27 жарко 1010.6 1000.8
00 16.06 В 2 10 км ясно +23.8 +4.0 28 +23 +23 комфорт 1010.5 1000.6
03 16.06 штиль 0 20 км 1/1 600 м
[Cu med, cong]
+24.8 +7.4 33 +25 +29 комфорт 1011.2 1001.3 +23.6
06 16.06 В 6 20 км ясно +31.7 +3.2 16 +29 +35 жарко 1010.7 1001.1 +23.6
09 16.06 В 8 20 км 3/0
[Ci fib]
+36.6 +7.1 16 +34 +38 очень
жарко
1009.1 999.6
12 16.06 В 8 20 км ясно +37.9 +8.8 17 +36 +38 очень
жарко
1006.9 997.5
15 16.06 В 3 20 км ясно +36.0 +7.6 18 +34 +34 очень
жарко
1006.5 997.0 +38.4
18 16.06 В 2 10 км ясно +29.4 +12.8 36 +31 +31 жарко 1006.8 997.2 +38.4
21 16.06 В 2 10 км ясно +26.4 +10.4 37 +27 +27 жарко 1006.6 996.8
00 17.06 В 2 10 км ясно +24.9 +10.4 40 +26 +26 жарко 1007.0 997.2
03 17.06 СВ 2 20 км ясно +26.2 +11.5 40 +27 +31 жарко 1006.7 996.9 +26.2
06 17.06 штиль 0 20 км ясно +33.0 +14.5 33 +35 +56 опасность
солнечного
удара
1006.9 997.4 +24.7
09 17.06 В 6 20 км ясно +37.4 +10.5 20 +36 +44 очень
жарко
1005.3 995.9
12 17.06 ЮВ 4 20 км ясно +39.3 +11.4 19 +38 +45 очень
жарко
1003.9 994.6
15 17.06 В 3 20 км 3/0
[Ci fib]
+37.8 +13.8 24 +38 +38 очень
жарко
1003.4 994.1 +39.8
18 17.06 В 2 20 км ясно +31.6 +11.9 30 +32 +32 жарко 1004.5 995.0 +39.8
21 17.06 штиль 0 20 км ясно +27.0 +12.4 40 +28 +28 жарко 1004.1 994.4

 

Местоположение метеостанции Сердар (Балканский велаят, Туркменистан): широта 38.98 долгота 56.28 высота над уровнем моря 92 м.

В архиве по умолчанию представлена погода в Сердаре за последнюю неделю. Архивные данные за месяц целиком и за предыдущие месяцы, начиная с января 2011 года, Вы можете получить, выбрав интересующий диапазон дат из раскрывающегося списка и нажав кнопку "Ввод!".


*Определитесь, кто Вы:
робот инопланетянин человек

Внимание! Время в таблицах - всемирное. Для получения местного времени необходимо прибавить поправку, которая равна 5 ч.

Смотрите также архив погоды в соседних городах и на ближайших метеорологических станциях:

Погода в Гаррыгале (Балканский велаят, Туркменистан) (61 км)
Погода в Газаджаке (Лебапский велаят, Туркменистан) (72 км)
Погода в Бахарлы (Ахалский велаят, Туркменистан) (116 км)
Погода в Мараве Таппе (Иран) (124 км)
Погода в Unknown (Туркменистан) (126 км)
Погода в Небит-Даге (Балканский велаят, Туркменистан) (178 км)
Погода в Боджнурде (Иран) (191 км)
Погода в Гызылетреке (Балканский велаят, Туркменистан) (200 км)
Погода в Ербенте (Ахалский велаят, Туркменистан) (204 км)
Погода в Ашхабаде (город Ашхабад, Туркменистан) (214 км)

Пояснения к столбцам:

Ветер - указаны скорость ветра в м/с - средняя за 10 мин, порывы в срок и между сроками (в фигурных скобках) и направление, откуда дует ветер: С - северный, СВ - северо-восточный, В - восточный, ЮВ - юго-восточный, Ю - южный, ЮЗ - юго-западный, З - западный, СЗ - северо-западный.
Видимость - горизонтальная дальность видимости в метрах или километрах. При видимости от 1 до 10 км при отсутствии осадков обычно наблюдается дымка, при ухудшении видимости до 1 км и менее - туман. В сухую погоду видимость может ухудшаться дымом, пылью или мглою.
Явления - указаны атмосферные явления, наблюдавшиеся в срок или в последний час перед сроком; фигурными скобками обозначены явления, наблюдавшиеся между сроками (за 1-3 часа до срока); квадратными скобками обозначены град или гололедные отложения с указанием их диаметра в мм.
Облачность - указаны через наклонную черту общая и нижняя облачность в баллах и высота нижней границы облаков в метрах; квадратными скобками обозначены формы облаков: Ci - перистые, Cs - перисто-слоистые, Cc - перисто-кучевые, Ac - высококучевые, As - высокослоистые, Sc - слоисто-кучевые, Ns - слоисто-дождевые, Cu - кучевые, Cb - кучево-дождевые. Подробнее классификацию облаков см. в Атласе облаков (PDF).
T - Температура воздуха - температура, измеренная на высоте 2 м над землей.
Td - Температура точки росы - температура, при понижении до которой содержащийся в воздухе водяной пар достигнет насыщения.
f - Относительная влажность воздуха - влажноcть воздуха, измеренная на высоте 2 м над землей.
Te - Эффективная температура - температура, которую ощущает одетый по сезону человек в тени. Характеристика душности погоды. При расчете учитывается влияние влажности воздуха и скорости ветра на теплоощущения человека.
Tes - Эффективная температура на солнце - температура, которую ощущает человек, с поправкой на солнечный нагрев. Характеристика знойности погоды. Зависит от высоты солнца над горизонтом, облачности и скорости ветра. Ночью, в пасмурную погоду, а также при ветре 12 м/с и более поправка равна нулю.
P - Атмосферное давление - приведенное к уровню моря атмосферное давление.
Po - Атмосферное давление - измеренное на уровне метеостанции атмосферное давление.
Tmin - Минимальная температура - минимум температуры воздуха на высоте 2 м над землей.
Tmax - Максимальная температура - максимум температуры воздуха на высоте 2 м над землей.
R - Количество осадков - Количество выпавших осадков за период времени, мм. При наведении курсора мыши на число - период времени, за который выпало указанное количество осадков.
R24 - Количество осадков - Количество выпавших осадков за 24 часа, мм.
S - Снежный покров - Высота снежного покрова, см. При наведении курсора мыши на число - состояние снежного покрова и степень покрытия местности в баллах.